GEFSSGP_prec_meanprecacc_132.txt.gz
Total_Precipitation_Accumulation
1.99 2.08 2.56 3.04 3.11 2.11 1.40 1.09 0.89 0.80 0.66 0.46 0.34 0.29 0.45 0.83 1.11 1.23 1.07 0.94 0.66 0.57 0.51 0.63 0.80 0.78 0.70 0.66 0.65 0.68 0.69 0.70 0.70 0.65 0.55 0.51 0.43 0.36 0.31 0.26 0.23 0.24 0.25 0.29 0.31 0.32 0.28 0.31 0.36
1.74 2.22 2.94 3.39 2.44 1.58 1.35 1.03 0.90 0.72 0.54 0.36 0.30 0.24 0.31 0.31 0.34 0.63 1.21 1.28 0.70 0.53 0.53 0.64 0.86 0.88 0.84 0.80 0.81 0.80 0.75 0.71 0.73 0.68 0.61 0.56 0.50 0.44 0.44 0.42 0.32 0.29 0.30 0.33 0.32 0.30 0.31 0.37 0.43
1.99 2.62 3.32 3.10 1.89 1.38 1.39 1.00 0.74 0.49 0.34 0.30 0.31 0.24 0.30 0.38 0.52 0.88 1.21 0.98 0.66 0.56 0.53 0.72 0.94 0.86 0.84 0.88 0.99 0.98 0.90 0.80 0.74 0.72 0.69 0.63 0.57 0.57 0.63 0.53 0.45 0.41 0.41 0.44 0.45 0.42 0.41 0.48 0.52
2.13 2.93 3.05 2.28 1.62 1.30 1.09 0.90 0.63 0.48 0.29 0.16 0.21 0.30 0.27 0.36 0.58 0.85 0.85 0.62 0.46 0.45 0.46 0.69 0.99 0.90 0.87 0.92 1.07 0.98 0.92 0.90 0.83 0.82 0.82 0.78 0.73 0.73 0.72 0.67 0.64 0.57 0.55 0.55 0.57 0.55 0.53 0.57 0.57
2.27 2.85 2.66 2.21 1.55 1.38 0.99 0.78 0.62 0.52 0.39 0.22 0.18 0.36 0.37 0.51 0.66 0.74 0.73 0.59 0.48 0.46 0.44 0.59 0.92 0.88 0.82 0.86 0.97 0.95 0.94 0.99 0.90 0.84 0.86 0.85 0.83 0.84 0.87 0.85 0.77 0.74 0.71 0.69 0.68 0.63 0.54 0.54 0.59
2.52 2.53 2.47 2.33 1.75 1.51 1.15 0.85 0.57 0.51 0.44 0.31 0.24 0.38 0.45 0.58 0.64 0.72 0.72 0.72 0.67 0.59 0.48 0.51 0.75 0.77 0.76 0.84 0.91 0.95 0.93 0.90 0.81 0.83 0.88 0.89 0.88 0.92 0.94 0.94 0.87 0.84 0.81 0.82 0.81 0.76 0.65 0.60 0.62
2.28 2.17 1.86 1.54 1.63 1.72 1.16 0.68 0.61 0.65 0.61 0.54 0.32 0.45 0.57 0.57 0.51 0.55 0.69 0.87 1.00 0.93 0.76 0.65 0.62 0.63 0.69 0.84 0.90 1.06 1.10 0.94 0.82 0.80 0.80 0.79 0.80 0.83 0.89 0.90 0.85 0.81 0.84 0.84 0.83 0.79 0.74 0.72 0.70
1.96 1.84 1.50 1.40 1.60 1.76 1.01 0.59 0.46 0.48 0.49 0.38 0.29 0.40 0.53 0.53 0.52 0.60 0.73 0.87 0.90 0.90 0.87 0.82 0.81 0.77 0.77 0.79 0.96 1.24 1.37 1.20 0.94 0.82 0.78 0.79 0.74 0.73 0.80 0.77 0.78 0.81 0.89 0.92 0.92 0.87 0.80 0.82 0.82
1.72 1.78 1.62 1.56 1.54 1.37 0.77 0.51 0.35 0.26 0.29 0.28 0.20 0.27 0.35 0.37 0.44 0.61 0.77 0.85 0.86 0.83 0.83 0.82 0.85 0.89 1.00 1.01 1.07 1.33 1.49 1.46 1.09 0.89 0.86 0.77 0.61 0.74 0.78 0.64 0.78 0.85 0.96 0.99 1.02 0.95 0.87 0.92 0.89
1.79 1.66 1.47 1.25 1.09 0.84 0.56 0.43 0.32 0.31 0.32 0.28 0.23 0.25 0.29 0.35 0.42 0.53 0.62 0.65 0.69 0.71 0.71 0.73 0.75 0.74 0.80 0.86 1.18 1.39 1.31 1.38 1.11 1.05 0.97 0.88 0.89 0.92 0.79 0.69 0.81 0.95 1.06 1.02 1.02 1.03 0.97 0.87 0.69
1.50 1.40 1.10 0.99 0.80 0.57 0.44 0.38 0.32 0.34 0.36 0.27 0.21 0.23 0.27 0.35 0.41 0.42 0.45 0.49 0.53 0.56 0.51 0.48 0.52 0.53 0.58 0.67 0.85 1.13 1.39 1.44 1.40 1.34 1.25 1.17 1.06 0.88 0.77 0.76 0.75 0.85 0.94 0.88 0.95 0.94 0.82 0.74 0.66
1.29 1.14 0.91 0.75 0.51 0.52 0.46 0.35 0.31 0.29 0.24 0.18 0.17 0.21 0.28 0.36 0.41 0.41 0.43 0.45 0.50 0.57 0.57 0.48 0.42 0.46 0.46 0.50 0.64 0.88 1.11 1.26 1.28 1.19 1.10 1.27 1.20 0.96 0.85 0.92 0.93 0.89 0.92 1.02 1.04 0.97 0.89 0.80 0.72
1.18 1.15 0.82 0.56 0.49 0.50 0.41 0.34 0.27 0.23 0.18 0.16 0.18 0.26 0.37 0.44 0.47 0.46 0.46 0.49 0.53 0.57 0.62 0.56 0.43 0.37 0.42 0.45 0.51 0.60 0.84 1.00 1.00 1.13 1.09 1.13 1.11 0.97 0.88 0.88 1.02 0.97 0.97 1.06 1.14 1.01 0.92 0.92 0.89
1.02 0.90 0.72 0.52 0.47 0.46 0.44 0.32 0.26 0.27 0.21 0.21 0.24 0.32 0.42 0.48 0.50 0.51 0.49 0.50 0.50 0.51 0.53 0.54 0.49 0.47 0.46 0.43 0.43 0.48 0.54 0.71 0.74 0.75 0.74 0.94 1.04 1.02 1.03 0.92 1.00 1.13 1.15 1.10 1.08 1.05 0.95 0.90 0.92
0.80 0.68 0.61 0.53 0.50 0.47 0.43 0.42 0.31 0.30 0.26 0.24 0.26 0.30 0.38 0.47 0.50 0.51 0.48 0.43 0.43 0.44 0.44 0.47 0.54 0.58 0.57 0.57 0.57 0.54 0.55 0.58 0.65 0.72 0.73 0.86 0.96 1.03 1.04 0.92 0.95 1.08 1.25 1.21 1.12 1.04 1.01 0.85 0.80
0.78 0.84 0.85 0.63 0.58 0.56 0.54 0.47 0.34 0.35 0.29 0.25 0.22 0.23 0.24 0.28 0.35 0.42 0.41 0.36 0.36 0.34 0.33 0.39 0.45 0.52 0.58 0.62 0.66 0.62 0.66 0.67 0.65 0.70 0.68 0.73 0.88 1.04 1.12 1.03 0.98 1.13 1.30 1.44 1.46 1.27 1.16 1.01 0.90
0.93 0.90 0.80 0.69 0.55 0.51 0.46 0.42 0.37 0.30 0.25 0.20 0.18 0.18 0.18 0.20 0.23 0.29 0.30 0.29 0.28 0.27 0.26 0.29 0.34 0.41 0.48 0.57 0.65 0.67 0.69 0.83 0.91 0.79 0.65 0.72 0.85 0.96 1.17 1.24 1.19 1.22 1.37 1.41 1.43 1.40 1.21 1.14 1.09
0.75 0.65 0.60 0.60 0.46 0.33 0.29 0.29 0.28 0.21 0.15 0.14 0.15 0.13 0.11 0.12 0.15 0.19 0.22 0.22 0.24 0.24 0.23 0.25 0.31 0.33 0.36 0.47 0.64 0.73 0.70 0.80 1.01 1.05 1.01 1.05 1.12 1.18 1.34 1.42 1.40 1.40 1.45 1.41 1.51 1.65 1.40 1.21 1.24
0.63 0.51 0.43 0.31 0.24 0.20 0.17 0.19 0.20 0.17 0.15 0.13 0.11 0.09 0.08 0.09 0.09 0.11 0.14 0.16 0.18 0.18 0.19 0.24 0.29 0.32 0.34 0.42 0.53 0.62 0.72 0.90 1.11 1.17 1.22 1.35 1.37 1.40 1.54 1.63 1.65 1.58 1.48 1.51 1.66 1.97 1.84 1.49 1.32
0.55 0.41 0.33 0.22 0.14 0.12 0.13 0.17 0.18 0.15 0.13 0.11 0.09 0.07 0.07 0.08 0.08 0.07 0.09 0.11 0.12 0.10 0.12 0.18 0.27 0.36 0.42 0.48 0.62 0.77 1.00 1.11 1.25 1.40 1.39 1.41 1.46 1.49 1.57 1.78 1.88 1.81 1.76 1.84 1.84 2.02 2.13 1.90 1.68
0.48 0.38 0.26 0.17 0.12 0.13 0.14 0.17 0.17 0.16 0.14 0.13 0.11 0.10 0.09 0.09 0.08 0.06 0.06 0.07 0.09 0.08 0.11 0.17 0.32 0.51 0.72 0.82 1.05 1.33 1.58 1.66 1.58 1.57 1.61 1.59 1.63 1.70 1.66 1.77 1.97 1.93 1.88 1.87 2.03 2.26 2.48 2.43 2.22
0.39 0.27 0.18 0.13 0.12 0.14 0.11 0.16 0.15 0.17 0.19 0.19 0.17 0.14 0.13 0.14 0.12 0.09 0.10 0.09 0.10 0.12 0.22 0.38 0.62 0.92 1.17 1.32 1.52 1.72 1.83 1.87 1.80 1.81 1.79 1.77 1.69 1.62 1.61 1.72 1.93 2.06 2.13 2.16 2.22 2.21 2.47 2.66 2.49
0.30 0.22 0.17 0.15 0.12 0.11 0.09 0.12 0.16 0.22 0.28 0.29 0.29 0.28 0.26 0.26 0.20 0.20 0.22 0.23 0.30 0.40 0.59 0.88 1.13 1.38 1.53 1.58 1.68 1.88 2.03 2.19 2.20 2.08 1.93 1.82 1.78 1.70 1.61 1.66 1.73 1.78 1.85 1.96 2.10 2.17 2.36 2.46 2.57
0.25 0.21 0.20 0.18 0.14 0.15 0.11 0.10 0.21 0.28 0.33 0.37 0.38 0.34 0.32 0.31 0.30 0.36 0.46 0.57 0.72 0.83 1.01 1.22 1.36 1.51 1.51 1.52 1.58 1.71 1.90 2.06 2.08 2.09 2.05 1.92 1.78 1.67 1.58 1.53 1.64 1.66 1.66 1.78 1.90 1.99 2.20 2.34 2.45
0.22 0.24 0.28 0.27 0.26 0.22 0.14 0.22 0.30 0.27 0.27 0.33 0.36 0.35 0.35 0.34 0.42 0.57 0.72 0.86 0.98 1.09 1.20 1.23 1.23 1.28 1.30 1.32 1.36 1.44 1.50 1.53 1.59 1.70 1.62 1.49 1.36 1.31 1.30 1.24 1.30 1.43 1.48 1.66 1.73 1.67 1.72 1.87 2.07
0.17 0.16 0.26 0.32 0.28 0.25 0.21 0.39 0.41 0.31 0.26 0.26 0.27 0.33 0.43 0.57 0.68 0.78 0.88 0.97 1.01 1.14 1.21 1.16 1.14 1.13 1.06 1.00 1.05 1.07 1.12 1.17 1.20 1.22 1.17 1.09 1.04 1.01 0.97 0.97 0.98 1.04 1.13 1.34 1.55 1.53 1.55 1.61 1.68
0.11 0.11 0.17 0.26 0.25 0.23 0.27 0.46 0.45 0.30 0.24 0.23 0.25 0.32 0.48 0.70 0.94 1.08 1.08 0.99 0.90 0.94 1.02 1.01 0.97 0.92 0.84 0.79 0.82 0.85 0.92 0.95 0.93 0.91 0.86 0.84 0.78 0.78 0.76 0.78 0.86 0.92 0.91 1.02 1.15 1.33 1.40 1.46 1.52
0.09 0.11 0.18 0.30 0.31 0.32 0.35 0.48 0.44 0.32 0.28 0.26 0.31 0.40 0.58 0.80 1.00 1.24 1.38 1.27 1.00 0.80 0.82 0.79 0.77 0.80 0.79 0.75 0.77 0.77 0.70 0.65 0.66 0.69 0.63 0.62 0.67 0.71 0.70 0.67 0.68 0.74 0.77 0.87 0.97 1.03 1.13 1.20 1.36
0.08 0.14 0.20 0.26 0.28 0.38 0.60 0.72 0.60 0.50 0.44 0.43 0.48 0.54 0.61 0.88 1.17 1.31 1.36 1.23 1.05 0.78 0.69 0.69 0.66 0.70 0.77 0.70 0.72 0.71 0.61 0.49 0.47 0.47 0.45 0.45 0.49 0.55 0.56 0.59 0.65 0.65 0.67 0.69 0.70 0.75 0.80 0.87 0.97
0.14 0.21 0.29 0.39 0.42 0.42 0.56 0.67 0.53 0.55 0.61 0.56 0.61 0.70 0.72 0.78 0.83 0.85 0.96 0.97 0.91 0.78 0.71 0.75 0.80 0.79 0.72 0.65 0.62 0.58 0.51 0.44 0.43 0.41 0.38 0.40 0.45 0.47 0.49 0.54 0.58 0.58 0.64 0.66 0.66 0.65 0.67 0.76 0.83

GEFSSGP_prec_meanprecacc_138.txt.gz
Total_Precipitation_Accumulation
2.01 2.14 2.66 3.15 3.19 2.18 1.45 1.13 0.93 0.83 0.70 0.50 0.38 0.35 0.50 0.88 1.16 1.27 1.12 0.98 0.68 0.58 0.53 0.68 0.89 0.88 0.80 0.74 0.74 0.75 0.75 0.74 0.75 0.70 0.59 0.53 0.45 0.39 0.35 0.30 0.27 0.27 0.28 0.31 0.33 0.36 0.31 0.33 0.38
1.77 2.31 3.12 3.51 2.52 1.65 1.41 1.07 0.94 0.75 0.57 0.39 0.33 0.26 0.35 0.33 0.35 0.66 1.26 1.32 0.72 0.55 0.56 0.71 0.97 0.98 0.91 0.86 0.88 0.88 0.81 0.75 0.77 0.72 0.65 0.58 0.52 0.45 0.46 0.44 0.34 0.31 0.32 0.34 0.33 0.32 0.33 0.38 0.45
2.04 2.72 3.50 3.25 1.98 1.44 1.44 1.04 0.78 0.52 0.36 0.33 0.35 0.28 0.35 0.43 0.56 0.91 1.25 1.00 0.68 0.58 0.56 0.79 1.04 0.96 0.91 0.95 1.05 1.04 0.96 0.85 0.78 0.76 0.74 0.67 0.61 0.60 0.64 0.54 0.46 0.42 0.42 0.44 0.46 0.43 0.42 0.49 0.55
2.20 3.05 3.18 2.41 1.73 1.36 1.14 0.95 0.67 0.52 0.32 0.18 0.24 0.33 0.31 0.44 0.65 0.90 0.88 0.64 0.49 0.47 0.48 0.74 1.08 0.99 0.94 0.97 1.12 1.03 0.95 0.94 0.86 0.85 0.84 0.81 0.75 0.76 0.74 0.68 0.65 0.59 0.57 0.55 0.57 0.56 0.54 0.58 0.59
2.33 2.91 2.73 2.31 1.65 1.46 1.04 0.82 0.65 0.56 0.42 0.24 0.20 0.39 0.42 0.59 0.74 0.80 0.76 0.61 0.50 0.48 0.46 0.63 0.97 0.96 0.88 0.91 1.01 0.99 0.97 1.01 0.93 0.88 0.89 0.88 0.86 0.87 0.89 0.86 0.78 0.75 0.73 0.70 0.68 0.63 0.55 0.55 0.61
2.62 2.59 2.53 2.39 1.83 1.60 1.23 0.91 0.62 0.54 0.45 0.32 0.26 0.41 0.50 0.66 0.74 0.80 0.76 0.74 0.68 0.60 0.49 0.52 0.79 0.81 0.81 0.89 0.94 0.98 0.96 0.93 0.84 0.85 0.90 0.90 0.89 0.93 0.95 0.95 0.88 0.84 0.82 0.83 0.82 0.77 0.66 0.61 0.63
2.38 2.27 1.95 1.60 1.69 1.82 1.26 0.76 0.67 0.68 0.63 0.54 0.34 0.48 0.62 0.63 0.58 0.60 0.72 0.89 1.01 0.93 0.76 0.66 0.64 0.64 0.72 0.87 0.93 1.08 1.12 0.96 0.83 0.81 0.80 0.79 0.80 0.84 0.89 0.91 0.86 0.82 0.85 0.85 0.83 0.80 0.75 0.73 0.71
2.03 1.93 1.62 1.49 1.68 1.84 1.08 0.66 0.51 0.51 0.50 0.38 0.30 0.42 0.56 0.57 0.56 0.62 0.74 0.89 0.92 0.90 0.87 0.82 0.82 0.77 0.78 0.81 0.98 1.25 1.38 1.20 0.94 0.83 0.78 0.79 0.74 0.73 0.81 0.77 0.79 0.81 0.89 0.92 0.92 0.88 0.80 0.83 0.83
1.78 1.87 1.75 1.69 1.63 1.43 0.82 0.57 0.40 0.28 0.30 0.29 0.21 0.29 0.39 0.39 0.47 0.63 0.78 0.86 0.86 0.83 0.84 0.82 0.85 0.89 1.01 1.01 1.07 1.33 1.49 1.46 1.09 0.89 0.87 0.77 0.61 0.74 0.78 0.64 0.78 0.85 0.96 0.99 1.02 0.95 0.88 0.93 0.90
1.82 1.75 1.60 1.37 1.18 0.89 0.61 0.49 0.38 0.35 0.35 0.30 0.24 0.29 0.33 0.38 0.44 0.54 0.62 0.65 0.69 0.71 0.71 0.73 0.75 0.74 0.80 0.86 1.18 1.39 1.31 1.38 1.11 1.05 0.97 0.88 0.89 0.92 0.79 0.69 0.81 0.95 1.06 1.02 1.02 1.03 0.97 0.87 0.69
1.54 1.48 1.19 1.08 0.88 0.63 0.51 0.46 0.37 0.39 0.39 0.29 0.24 0.29 0.34 0.38 0.42 0.42 0.46 0.49 0.53 0.57 0.51 0.48 0.52 0.53 0.58 0.67 0.85 1.13 1.39 1.44 1.40 1.34 1.25 1.17 1.06 0.88 0.77 0.76 0.75 0.85 0.94 0.88 0.95 0.94 0.82 0.74 0.66
1.33 1.20 0.99 0.86 0.60 0.59 0.54 0.42 0.36 0.33 0.28 0.21 0.20 0.24 0.30 0.37 0.41 0.41 0.43 0.45 0.50 0.57 0.57 0.48 0.42 0.46 0.46 0.50 0.64 0.88 1.11 1.26 1.28 1.19 1.10 1.27 1.20 0.96 0.85 0.92 0.93 0.89 0.93 1.02 1.05 0.97 0.89 0.80 0.72
1.22 1.22 0.90 0.67 0.58 0.59 0.47 0.38 0.31 0.27 0.22 0.19 0.20 0.27 0.37 0.44 0.47 0.46 0.46 0.49 0.53 0.57 0.62 0.56 0.43 0.37 0.42 0.45 0.51 0.60 0.84 1.00 1.00 1.13 1.09 1.13 1.11 0.97 0.88 0.88 1.02 0.97 0.97 1.07 1.15 1.02 0.93 0.93 0.90
1.06 0.97 0.82 0.61 0.57 0.56 0.51 0.36 0.29 0.31 0.24 0.23 0.26 0.33 0.42 0.48 0.51 0.51 0.50 0.50 0.50 0.51 0.53 0.54 0.49 0.47 0.46 0.44 0.44 0.49 0.54 0.71 0.74 0.75 0.74 0.94 1.04 1.02 1.03 0.92 1.00 1.13 1.15 1.11 1.09 1.06 0.96 0.91 0.93
0.86 0.77 0.74 0.63 0.62 0.58 0.50 0.47 0.33 0.32 0.27 0.26 0.27 0.31 0.39 0.47 0.50 0.52 0.48 0.43 0.43 0.44 0.44 0.48 0.54 0.59 0.57 0.57 0.57 0.54 0.55 0.58 0.65 0.72 0.73 0.86 0.96 1.03 1.04 0.92 0.95 1.08 1.25 1.21 1.13 1.05 1.01 0.86 0.81
0.87 0.97 1.00 0.77 0.69 0.65 0.61 0.53 0.38 0.38 0.31 0.27 0.24 0.24 0.26 0.29 0.36 0.43 0.42 0.37 0.36 0.34 0.33 0.39 0.45 0.52 0.58 0.62 0.66 0.62 0.66 0.67 0.65 0.70 0.68 0.73 0.88 1.04 1.12 1.03 0.98 1.13 1.30 1.44 1.46 1.27 1.17 1.02 0.92
1.05 1.02 0.93 0.83 0.67 0.61 0.54 0.48 0.41 0.34 0.28 0.23 0.20 0.20 0.20 0.21 0.24 0.29 0.30 0.29 0.28 0.27 0.26 0.29 0.34 0.41 0.48 0.57 0.65 0.67 0.69 0.83 0.91 0.79 0.65 0.72 0.85 0.96 1.17 1.24 1.19 1.22 1.37 1.41 1.43 1.40 1.22 1.16 1.11
0.85 0.75 0.72 0.74 0.57 0.42 0.37 0.36 0.33 0.26 0.18 0.16 0.17 0.14 0.12 0.13 0.16 0.20 0.22 0.23 0.24 0.24 0.23 0.25 0.31 0.33 0.36 0.47 0.64 0.73 0.70 0.80 1.01 1.05 1.01 1.05 1.12 1.18 1.34 1.42 1.40 1.40 1.45 1.41 1.51 1.65 1.41 1.23 1.25
0.71 0.62 0.55 0.42 0.33 0.28 0.24 0.25 0.25 0.22 0.18 0.15 0.13 0.10 0.09 0.09 0.10 0.11 0.14 0.17 0.18 0.18 0.19 0.24 0.29 0.32 0.34 0.42 0.53 0.62 0.72 0.90 1.11 1.17 1.22 1.35 1.37 1.40 1.54 1.63 1.65 1.58 1.48 1.51 1.67 1.99 1.86 1.49 1.33
0.67 0.51 0.44 0.33 0.23 0.20 0.19 0.23 0.23 0.19 0.17 0.13 0.10 0.08 0.07 0.08 0.08 0.07 0.09 0.12 0.12 0.10 0.12 0.18 0.27 0.36 0.42 0.48 0.62 0.77 1.00 1.11 1.25 1.40 1.39 1.41 1.46 1.49 1.57 1.78 1.88 1.81 1.76 1.84 1.84 2.03 2.15 1.91 1.68
0.61 0.47 0.34 0.27 0.21 0.19 0.18 0.22 0.21 0.19 0.17 0.15 0.12 0.10 0.09 0.09 0.08 0.06 0.07 0.08 0.10 0.09 0.11 0.18 0.32 0.51 0.72 0.82 1.05 1.33 1.58 1.66 1.58 1.57 1.61 1.59 1.63 1.70 1.66 1.77 1.97 1.93 1.88 1.87 2.03 2.26 2.49 2.44 2.22
0.51 0.35 0.25 0.22 0.19 0.20 0.14 0.20 0.18 0.19 0.21 0.20 0.18 0.15 0.14 0.14 0.12 0.10 0.10 0.10 0.10 0.12 0.22 0.38 0.62 0.92 1.17 1.32 1.52 1.72 1.83 1.87 1.80 1.81 1.79 1.77 1.69 1.62 1.61 1.72 1.93 2.06 2.13 2.16 2.22 2.22 2.47 2.66 2.50
0.39 0.30 0.25 0.24 0.18 0.16 0.11 0.14 0.18 0.23 0.29 0.29 0.30 0.29 0.27 0.26 0.20 0.21 0.23 0.24 0.30 0.40 0.59 0.88 1.13 1.38 1.53 1.58 1.68 1.88 2.03 2.19 2.20 2.08 1.93 1.82 1.78 1.70 1.61 1.66 1.73 1.78 1.85 1.96 2.10 2.17 2.36 2.47 2.58
0.31 0.30 0.30 0.26 0.21 0.21 0.15 0.12 0.22 0.28 0.33 0.37 0.39 0.35 0.32 0.31 0.31 0.36 0.47 0.58 0.72 0.83 1.01 1.22 1.37 1.51 1.51 1.52 1.58 1.71 1.90 2.06 2.08 2.09 2.05 1.92 1.78 1.67 1.58 1.53 1.64 1.66 1.66 1.78 1.90 1.99 2.20 2.34 2.45
0.30 0.33 0.39 0.36 0.32 0.27 0.17 0.24 0.30 0.27 0.27 0.33 0.36 0.35 0.35 0.35 0.42 0.58 0.73 0.87 0.98 1.09 1.20 1.23 1.23 1.28 1.30 1.32 1.36 1.44 1.50 1.53 1.59 1.70 1.62 1.49 1.36 1.31 1.30 1.24 1.30 1.43 1.48 1.66 1.73 1.67 1.72 1.88 2.07
0.25 0.23 0.32 0.37 0.32 0.28 0.22 0.40 0.41 0.31 0.26 0.26 0.27 0.33 0.44 0.58 0.68 0.78 0.89 0.97 1.01 1.14 1.21 1.16 1.14 1.13 1.06 1.00 1.05 1.07 1.12 1.17 1.20 1.22 1.17 1.09 1.04 1.01 0.97 0.97 0.98 1.04 1.13 1.34 1.55 1.53 1.55 1.61 1.68
0.19 0.18 0.20 0.28 0.26 0.25 0.28 0.46 0.45 0.30 0.24 0.23 0.25 0.33 0.48 0.70 0.94 1.09 1.08 0.99 0.90 0.94 1.02 1.01 0.97 0.92 0.84 0.79 0.82 0.85 0.92 0.95 0.93 0.91 0.86 0.84 0.78 0.78 0.76 0.78 0.86 0.92 0.91 1.02 1.15 1.33 1.41 1.46 1.53
0.14 0.16 0.21 0.31 0.33 0.33 0.36 0.49 0.44 0.33 0.28 0.26 0.31 0.40 0.59 0.80 1.00 1.25 1.38 1.27 1.00 0.80 0.82 0.79 0.77 0.80 0.79 0.75 0.77 0.77 0.70 0.65 0.66 0.69 0.63 0.62 0.67 0.71 0.70 0.67 0.68 0.74 0.77 0.87 0.97 1.03 1.13 1.21 1.37
0.13 0.17 0.22 0.28 0.29 0.39 0.61 0.72 0.60 0.50 0.44 0.43 0.48 0.54 0.61 0.89 1.17 1.31 1.36 1.23 1.05 0.78 0.69 0.69 0.66 0.70 0.77 0.70 0.72 0.71 0.61 0.49 0.47 0.47 0.45 0.45 0.49 0.55 0.56 0.59 0.65 0.65 0.67 0.69 0.70 0.75 0.81 0.88 0.98
0.17 0.23 0.30 0.40 0.43 0.42 0.56 0.67 0.53 0.55 0.61 0.56 0.61 0.70 0.72 0.78 0.83 0.85 0.96 0.97 0.91 0.78 0.71 0.75 0.80 0.79 0.72 0.65 0.62 0.58 0.51 0.44 0.43 0.41 0.38 0.40 0.45 0.47 0.49 0.54 0.58 0.58 0.64 0.66 0.66 0.65 0.67 0.77 0.84

GEFSSGP_prec_meanprecacc_144.txt.gz
Total_Precipitation_Accumulation
2.03 2.18 2.73 3.23 3.32 2.36 1.61 1.25 1.01 0.89 0.74 0.52 0.41 0.38 0.56 0.97 1.29 1.38 1.24 1.10 0.72 0.61 0.56 0.70 0.94 0.93 0.85 0.79 0.78 0.78 0.79 0.78 0.79 0.73 0.62 0.56 0.47 0.41 0.37 0.32 0.30 0.30 0.31 0.34 0.36 0.38 0.35 0.35 0.40
1.81 2.35 3.17 3.61 2.68 1.80 1.53 1.16 1.01 0.79 0.59 0.40 0.34 0.28 0.39 0.36 0.38 0.72 1.38 1.40 0.75 0.58 0.59 0.73 1.01 1.02 0.96 0.90 0.90 0.90 0.85 0.78 0.80 0.75 0.67 0.59 0.54 0.47 0.48 0.46 0.36 0.33 0.34 0.36 0.35 0.34 0.36 0.41 0.47
2.07 2.76 3.58 3.38 2.13 1.58 1.55 1.11 0.82 0.54 0.37 0.33 0.36 0.30 0.39 0.46 0.59 0.98 1.35 1.04 0.71 0.60 0.59 0.81 1.08 0.99 0.94 0.98 1.08 1.06 0.99 0.87 0.80 0.78 0.75 0.69 0.63 0.62 0.66 0.55 0.48 0.45 0.44 0.45 0.48 0.45 0.44 0.52 0.57
2.24 3.10 3.25 2.52 1.85 1.44 1.19 0.99 0.70 0.54 0.34 0.19 0.26 0.36 0.33 0.48 0.68 0.93 0.91 0.66 0.50 0.49 0.50 0.76 1.11 1.02 0.95 0.99 1.13 1.05 0.97 0.96 0.88 0.86 0.85 0.83 0.78 0.77 0.75 0.70 0.67 0.61 0.58 0.57 0.59 0.58 0.56 0.60 0.60
2.38 3.00 2.84 2.43 1.75 1.51 1.07 0.85 0.68 0.60 0.43 0.25 0.22 0.43 0.45 0.65 0.77 0.82 0.77 0.62 0.51 0.51 0.49 0.64 0.99 0.98 0.89 0.92 1.02 1.00 0.98 1.03 0.94 0.88 0.90 0.89 0.88 0.89 0.91 0.88 0.79 0.77 0.74 0.72 0.70 0.64 0.56 0.56 0.61
2.71 2.68 2.64 2.52 1.93 1.65 1.26 0.94 0.65 0.58 0.47 0.33 0.27 0.43 0.55 0.74 0.80 0.84 0.78 0.76 0.70 0.63 0.50 0.53 0.80 0.84 0.83 0.91 0.95 0.99 0.97 0.94 0.85 0.85 0.90 0.91 0.90 0.94 0.97 0.97 0.88 0.85 0.83 0.84 0.82 0.78 0.67 0.61 0.64
2.47 2.37 2.08 1.73 1.80 1.90 1.30 0.79 0.71 0.72 0.65 0.56 0.36 0.50 0.66 0.71 0.64 0.64 0.74 0.91 1.02 0.95 0.78 0.67 0.65 0.65 0.74 0.89 0.93 1.09 1.12 0.96 0.83 0.81 0.80 0.79 0.80 0.84 0.89 0.91 0.86 0.82 0.85 0.85 0.84 0.80 0.75 0.73 0.72
2.08 2.02 1.76 1.64 1.82 1.95 1.12 0.69 0.55 0.55 0.53 0.39 0.32 0.45 0.59 0.60 0.60 0.65 0.75 0.91 0.94 0.92 0.89 0.84 0.83 0.79 0.79 0.82 0.98 1.26 1.38 1.21 0.94 0.83 0.78 0.79 0.74 0.73 0.81 0.77 0.79 0.81 0.89 0.92 0.92 0.88 0.81 0.83 0.83
1.81 1.97 1.91 1.84 1.77 1.54 0.87 0.61 0.44 0.31 0.32 0.30 0.23 0.31 0.41 0.41 0.49 0.65 0.79 0.88 0.89 0.85 0.86 0.83 0.86 0.90 1.01 1.02 1.07 1.33 1.49 1.46 1.09 0.89 0.87 0.77 0.61 0.74 0.78 0.64 0.78 0.85 0.96 0.99 1.02 0.95 0.88 0.93 0.91
1.87 1.90 1.74 1.46 1.24 0.94 0.67 0.54 0.42 0.40 0.39 0.34 0.27 0.30 0.36 0.42 0.46 0.55 0.63 0.66 0.70 0.72 0.72 0.73 0.75 0.75 0.80 0.86 1.18 1.39 1.31 1.38 1.11 1.05 0.97 0.88 0.89 0.92 0.79 0.69 0.81 0.96 1.06 1.03 1.03 1.04 0.98 0.88 0.71
1.58 1.60 1.27 1.12 0.91 0.67 0.56 0.50 0.40 0.46 0.47 0.34 0.27 0.32 0.36 0.40 0.44 0.44 0.46 0.49 0.53 0.57 0.51 0.48 0.52 0.53 0.58 0.68 0.85 1.13 1.39 1.44 1.40 1.34 1.25 1.17 1.06 0.88 0.78 0.76 0.76 0.86 0.95 0.89 0.96 0.95 0.83 0.75 0.67
1.35 1.26 1.04 0.91 0.64 0.64 0.57 0.45 0.41 0.38 0.34 0.25 0.24 0.27 0.31 0.38 0.42 0.42 0.44 0.46 0.50 0.57 0.57 0.48 0.42 0.46 0.46 0.50 0.64 0.88 1.11 1.26 1.28 1.19 1.10 1.27 1.20 0.96 0.85 0.93 0.93 0.90 0.94 1.03 1.05 0.98 0.90 0.81 0.73
1.25 1.28 0.98 0.72 0.61 0.62 0.51 0.43 0.36 0.31 0.25 0.20 0.21 0.29 0.39 0.46 0.49 0.47 0.46 0.49 0.53 0.57 0.62 0.56 0.43 0.37 0.42 0.45 0.51 0.60 0.84 1.00 1.00 1.13 1.09 1.13 1.11 0.97 0.88 0.88 1.02 0.98 0.97 1.07 1.16 1.03 0.94 0.94 0.91
1.08 1.02 0.90 0.68 0.61 0.60 0.59 0.43 0.33 0.34 0.26 0.25 0.28 0.35 0.44 0.50 0.51 0.51 0.50 0.50 0.50 0.51 0.53 0.54 0.49 0.47 0.46 0.44 0.44 0.49 0.54 0.71 0.74 0.75 0.74 0.94 1.04 1.02 1.03 0.92 1.00 1.13 1.15 1.11 1.10 1.08 0.98 0.93 0.95
0.88 0.83 0.84 0.76 0.69 0.64 0.59 0.56 0.38 0.35 0.28 0.27 0.29 0.33 0.41 0.48 0.50 0.52 0.48 0.43 0.43 0.44 0.44 0.48 0.54 0.59 0.57 0.57 0.57 0.54 0.55 0.58 0.65 0.72 0.73 0.86 0.96 1.03 1.04 0.92 0.95 1.08 1.25 1.21 1.13 1.06 1.03 0.88 0.83
0.93 1.08 1.14 0.91 0.78 0.72 0.68 0.64 0.43 0.41 0.32 0.28 0.26 0.26 0.27 0.30 0.36 0.43 0.42 0.37 0.36 0.34 0.33 0.39 0.45 0.52 0.58 0.62 0.66 0.62 0.66 0.67 0.65 0.70 0.68 0.73 0.88 1.04 1.12 1.03 0.98 1.13 1.30 1.44 1.46 1.28 1.18 1.05 0.96
1.15 1.17 1.08 0.99 0.77 0.68 0.62 0.59 0.47 0.37 0.30 0.24 0.23 0.23 0.21 0.21 0.24 0.29 0.30 0.29 0.28 0.27 0.26 0.29 0.34 0.41 0.48 0.57 0.65 0.67 0.69 0.83 0.91 0.79 0.65 0.72 0.85 0.96 1.17 1.24 1.19 1.22 1.37 1.41 1.43 1.41 1.24 1.20 1.15
0.93 0.88 0.84 0.86 0.67 0.51 0.45 0.43 0.41 0.32 0.22 0.19 0.19 0.16 0.14 0.14 0.16 0.20 0.22 0.23 0.24 0.24 0.23 0.25 0.31 0.33 0.36 0.47 0.64 0.73 0.70 0.80 1.01 1.05 1.01 1.05 1.12 1.18 1.34 1.42 1.40 1.40 1.45 1.41 1.52 1.67 1.44 1.27 1.28
0.77 0.71 0.65 0.52 0.42 0.38 0.33 0.33 0.33 0.29 0.23 0.20 0.16 0.12 0.10 0.10 0.11 0.12 0.14 0.17 0.18 0.18 0.19 0.24 0.29 0.32 0.34 0.42 0.53 0.62 0.72 0.90 1.11 1.17 1.22 1.35 1.37 1.40 1.54 1.63 1.65 1.58 1.49 1.52 1.68 2.00 1.88 1.52 1.36
0.71 0.59 0.55 0.44 0.34 0.30 0.30 0.30 0.30 0.25 0.22 0.17 0.13 0.10 0.08 0.09 0.09 0.08 0.09 0.12 0.12 0.10 0.12 0.18 0.27 0.36 0.42 0.48 0.62 0.77 1.00 1.11 1.25 1.40 1.39 1.41 1.46 1.49 1.57 1.78 1.88 1.81 1.77 1.85 1.85 2.04 2.18 1.93 1.70
0.68 0.56 0.42 0.36 0.31 0.29 0.28 0.33 0.31 0.26 0.21 0.18 0.14 0.11 0.10 0.09 0.09 0.07 0.07 0.08 0.10 0.09 0.11 0.18 0.32 0.51 0.72 0.82 1.05 1.33 1.58 1.66 1.58 1.57 1.61 1.59 1.63 1.70 1.66 1.77 1.98 1.94 1.88 1.88 2.04 2.27 2.51 2.47 2.24
0.62 0.43 0.31 0.29 0.29 0.31 0.24 0.32 0.27 0.25 0.25 0.22 0.19 0.16 0.14 0.14 0.12 0.10 0.11 0.10 0.10 0.13 0.22 0.38 0.62 0.92 1.17 1.32 1.52 1.72 1.83 1.87 1.80 1.81 1.79 1.77 1.69 1.62 1.61 1.72 1.93 2.06 2.14 2.17 2.23 2.22 2.49 2.68 2.53
0.47 0.36 0.30 0.30 0.28 0.25 0.19 0.23 0.23 0.26 0.31 0.31 0.31 0.29 0.27 0.26 0.20 0.21 0.23 0.24 0.30 0.40 0.59 0.88 1.14 1.38 1.53 1.58 1.68 1.88 2.03 2.19 2.20 2.08 1.93 1.82 1.78 1.70 1.61 1.66 1.74 1.78 1.86 1.97 2.10 2.18 2.37 2.47 2.60
0.36 0.37 0.37 0.34 0.32 0.33 0.22 0.19 0.27 0.30 0.34 0.38 0.40 0.35 0.33 0.31 0.31 0.36 0.47 0.58 0.73 0.83 1.01 1.22 1.37 1.51 1.51 1.52 1.58 1.71 1.90 2.06 2.08 2.09 2.05 1.92 1.78 1.67 1.58 1.53 1.64 1.66 1.66 1.78 1.91 2.00 2.21 2.36 2.47
0.35 0.41 0.49 0.49 0.46 0.38 0.23 0.30 0.34 0.28 0.28 0.35 0.37 0.36 0.35 0.35 0.42 0.58 0.73 0.87 0.99 1.10 1.20 1.23 1.23 1.28 1.30 1.32 1.36 1.44 1.50 1.53 1.59 1.70 1.62 1.49 1.36 1.31 1.30 1.24 1.30 1.43 1.48 1.66 1.73 1.67 1.72 1.88 2.08
0.29 0.30 0.41 0.46 0.40 0.35 0.28 0.44 0.43 0.32 0.27 0.26 0.28 0.34 0.44 0.58 0.68 0.78 0.89 0.98 1.02 1.15 1.21 1.16 1.14 1.13 1.06 1.00 1.05 1.07 1.12 1.17 1.20 1.22 1.17 1.09 1.04 1.01 0.97 0.97 0.98 1.04 1.13 1.34 1.55 1.53 1.55 1.61 1.69
0.22 0.21 0.25 0.35 0.32 0.32 0.32 0.48 0.46 0.30 0.24 0.24 0.25 0.33 0.48 0.70 0.94 1.09 1.09 1.00 0.91 0.95 1.02 1.01 0.97 0.93 0.84 0.79 0.82 0.85 0.92 0.95 0.93 0.91 0.86 0.84 0.78 0.78 0.76 0.78 0.86 0.92 0.91 1.02 1.15 1.33 1.41 1.46 1.53
0.17 0.18 0.24 0.37 0.40 0.40 0.39 0.50 0.44 0.33 0.28 0.26 0.31 0.40 0.59 0.81 1.00 1.25 1.39 1.28 1.01 0.81 0.82 0.79 0.77 0.80 0.79 0.75 0.77 0.77 0.70 0.65 0.66 0.69 0.63 0.62 0.67 0.71 0.70 0.67 0.68 0.74 0.77 0.87 0.98 1.03 1.14 1.21 1.37
0.16 0.19 0.25 0.32 0.32 0.43 0.65 0.74 0.60 0.50 0.44 0.43 0.48 0.54 0.61 0.89 1.18 1.31 1.37 1.24 1.06 0.79 0.70 0.69 0.66 0.70 0.77 0.70 0.72 0.71 0.61 0.49 0.47 0.47 0.45 0.45 0.49 0.55 0.56 0.59 0.65 0.65 0.67 0.69 0.70 0.75 0.81 0.88 0.99
0.19 0.24 0.32 0.45 0.46 0.44 0.58 0.69 0.53 0.55 0.62 0.56 0.61 0.70 0.73 0.78 0.83 0.85 0.97 0.98 0.92 0.78 0.71 0.76 0.80 0.79 0.72 0.65 0.62 0.58 0.51 0.44 0.43 0.41 0.38 0.40 0.45 0.47 0.49 0.54 0.58 0.58 0.64 0.66 0.66 0.65 0.68 0.77 0.85

GEFSSGP_prec_meanprecacc_150.txt.gz
Total_Precipitation_Accumulation
2.03 2.19 2.78 3.30 3.42 2.48 1.72 1.33 1.09 0.95 0.78 0.55 0.43 0.40 0.59 1.01 1.35 1.44 1.35 1.22 0.75 0.62 0.58 0.74 0.97 0.94 0.87 0.81 0.80 0.81 0.81 0.79 0.80 0.74 0.63 0.57 0.48 0.42 0.38 0.33 0.30 0.31 0.31 0.35 0.37 0.39 0.35 0.36 0.40
1.81 2.37 3.22 3.68 2.78 1.88 1.60 1.21 1.06 0.84 0.62 0.43 0.36 0.29 0.40 0.37 0.40 0.77 1.50 1.50 0.77 0.58 0.60 0.76 1.04 1.04 0.97 0.91 0.91 0.91 0.86 0.79 0.81 0.76 0.68 0.60 0.54 0.48 0.48 0.46 0.37 0.34 0.35 0.37 0.36 0.35 0.37 0.41 0.47
2.09 2.81 3.64 3.46 2.23 1.66 1.62 1.16 0.87 0.58 0.40 0.36 0.37 0.32 0.41 0.49 0.62 1.04 1.43 1.08 0.72 0.61 0.61 0.84 1.10 1.00 0.95 0.99 1.08 1.07 0.99 0.88 0.81 0.79 0.76 0.69 0.63 0.62 0.67 0.56 0.49 0.46 0.46 0.47 0.48 0.46 0.45 0.52 0.57
2.28 3.16 3.32 2.61 1.94 1.51 1.24 1.02 0.74 0.57 0.37 0.20 0.26 0.38 0.36 0.52 0.71 0.98 0.96 0.67 0.51 0.50 0.51 0.78 1.13 1.03 0.96 0.99 1.14 1.05 0.99 0.97 0.89 0.87 0.86 0.83 0.78 0.78 0.76 0.70 0.68 0.63 0.60 0.58 0.60 0.58 0.56 0.60 0.61
2.42 3.06 2.91 2.50 1.82 1.59 1.13 0.89 0.72 0.63 0.46 0.26 0.23 0.44 0.49 0.70 0.80 0.84 0.78 0.63 0.52 0.51 0.50 0.66 1.00 0.99 0.89 0.93 1.02 1.00 0.99 1.04 0.94 0.88 0.90 0.90 0.88 0.89 0.92 0.88 0.80 0.77 0.75 0.72 0.70 0.65 0.57 0.57 0.62
2.77 2.74 2.72 2.59 2.01 1.74 1.32 0.97 0.68 0.60 0.49 0.35 0.28 0.45 0.59 0.83 0.85 0.86 0.79 0.77 0.71 0.63 0.51 0.54 0.81 0.84 0.83 0.91 0.96 0.99 0.98 0.95 0.85 0.86 0.90 0.91 0.91 0.95 0.98 0.97 0.89 0.86 0.83 0.84 0.83 0.79 0.67 0.62 0.65
2.54 2.44 2.17 1.81 1.88 2.00 1.38 0.83 0.74 0.74 0.68 0.60 0.37 0.52 0.70 0.80 0.71 0.66 0.75 0.92 1.03 0.95 0.78 0.67 0.66 0.66 0.74 0.89 0.94 1.09 1.13 0.96 0.84 0.81 0.80 0.79 0.80 0.84 0.90 0.91 0.86 0.82 0.86 0.85 0.84 0.81 0.76 0.74 0.72
2.13 2.09 1.84 1.73 1.91 2.04 1.20 0.73 0.57 0.56 0.56 0.40 0.33 0.46 0.60 0.64 0.66 0.68 0.77 0.92 0.94 0.92 0.90 0.84 0.83 0.79 0.79 0.82 0.99 1.26 1.38 1.21 0.95 0.83 0.79 0.79 0.74 0.73 0.81 0.77 0.79 0.81 0.89 0.93 0.93 0.89 0.82 0.85 0.85
1.88 2.06 1.99 1.94 1.86 1.61 0.94 0.66 0.48 0.32 0.33 0.31 0.23 0.31 0.41 0.44 0.54 0.68 0.81 0.90 0.90 0.86 0.86 0.84 0.86 0.90 1.01 1.02 1.07 1.33 1.49 1.46 1.10 0.89 0.87 0.78 0.61 0.74 0.78 0.65 0.78 0.86 0.97 1.00 1.03 0.97 0.90 0.95 0.93
1.93 1.98 1.84 1.53 1.31 1.01 0.73 0.58 0.45 0.42 0.41 0.36 0.28 0.31 0.37 0.44 0.49 0.57 0.64 0.67 0.71 0.73 0.73 0.74 0.75 0.75 0.80 0.86 1.18 1.39 1.31 1.38 1.11 1.05 0.97 0.88 0.89 0.92 0.79 0.70 0.82 0.97 1.07 1.03 1.04 1.05 1.00 0.90 0.73
1.64 1.68 1.38 1.20 0.97 0.74 0.62 0.55 0.43 0.49 0.50 0.37 0.29 0.33 0.37 0.41 0.46 0.46 0.48 0.50 0.54 0.57 0.51 0.48 0.52 0.53 0.58 0.68 0.85 1.13 1.39 1.44 1.40 1.34 1.25 1.17 1.06 0.88 0.78 0.76 0.76 0.86 0.95 0.89 0.96 0.96 0.83 0.76 0.69
1.42 1.34 1.14 1.00 0.71 0.73 0.67 0.52 0.45 0.41 0.36 0.27 0.26 0.29 0.32 0.40 0.46 0.46 0.46 0.47 0.50 0.57 0.58 0.48 0.42 0.46 0.46 0.50 0.64 0.88 1.11 1.26 1.28 1.19 1.10 1.27 1.20 0.96 0.86 0.93 0.93 0.90 0.94 1.04 1.06 0.99 0.90 0.82 0.75
1.30 1.36 1.04 0.78 0.69 0.73 0.63 0.51 0.42 0.35 0.28 0.23 0.24 0.32 0.42 0.48 0.51 0.50 0.48 0.49 0.53 0.57 0.62 0.56 0.43 0.37 0.42 0.45 0.51 0.60 0.84 1.00 1.00 1.13 1.09 1.13 1.11 0.97 0.88 0.88 1.02 0.98 0.98 1.08 1.16 1.03 0.95 0.95 0.92
1.13 1.10 0.98 0.75 0.69 0.71 0.69 0.49 0.37 0.39 0.31 0.30 0.32 0.40 0.48 0.53 0.53 0.53 0.51 0.50 0.50 0.51 0.53 0.54 0.49 0.47 0.46 0.44 0.44 0.49 0.54 0.71 0.74 0.75 0.74 0.94 1.04 1.02 1.03 0.92 1.00 1.14 1.15 1.12 1.11 1.08 0.98 0.94 0.97
0.93 0.93 0.98 0.83 0.77 0.73 0.66 0.64 0.43 0.37 0.31 0.31 0.34 0.38 0.44 0.51 0.51 0.52 0.48 0.43 0.43 0.44 0.44 0.48 0.54 0.59 0.57 0.57 0.57 0.54 0.55 0.58 0.65 0.72 0.73 0.86 0.96 1.03 1.04 0.92 0.95 1.09 1.26 1.22 1.13 1.06 1.04 0.90 0.85
1.00 1.18 1.32 1.01 0.85 0.79 0.74 0.71 0.49 0.43 0.34 0.31 0.31 0.31 0.29 0.31 0.37 0.43 0.42 0.37 0.36 0.34 0.33 0.39 0.45 0.52 0.58 0.62 0.66 0.62 0.66 0.67 0.65 0.70 0.68 0.73 0.88 1.04 1.12 1.03 0.98 1.13 1.31 1.45 1.46 1.28 1.18 1.06 0.97
1.24 1.26 1.17 1.10 0.84 0.75 0.68 0.63 0.54 0.40 0.33 0.27 0.26 0.26 0.25 0.22 0.25 0.29 0.31 0.29 0.28 0.28 0.26 0.29 0.34 0.41 0.48 0.57 0.65 0.67 0.69 0.83 0.91 0.79 0.65 0.72 0.85 0.96 1.17 1.24 1.19 1.22 1.37 1.42 1.43 1.41 1.25 1.21 1.17
0.99 0.95 0.92 0.97 0.77 0.60 0.52 0.47 0.48 0.37 0.26 0.23 0.21 0.18 0.16 0.15 0.17 0.20 0.22 0.23 0.24 0.24 0.23 0.25 0.31 0.33 0.36 0.47 0.64 0.73 0.70 0.80 1.01 1.05 1.01 1.05 1.12 1.18 1.34 1.42 1.40 1.40 1.45 1.42 1.52 1.67 1.46 1.28 1.30
0.81 0.76 0.72 0.61 0.51 0.48 0.42 0.38 0.38 0.35 0.29 0.24 0.19 0.14 0.12 0.12 0.13 0.13 0.14 0.17 0.18 0.18 0.19 0.24 0.29 0.32 0.34 0.42 0.53 0.62 0.72 0.90 1.11 1.17 1.22 1.35 1.37 1.40 1.54 1.64 1.65 1.58 1.49 1.52 1.68 2.01 1.90 1.53 1.37
0.74 0.65 0.63 0.53 0.41 0.37 0.39 0.38 0.37 0.31 0.28 0.21 0.16 0.13 0.10 0.11 0.12 0.09 0.10 0.12 0.12 0.10 0.12 0.18 0.27 0.36 0.42 0.48 0.62 0.77 1.00 1.11 1.25 1.40 1.39 1.41 1.47 1.50 1.58 1.78 1.89 1.81 1.77 1.85 1.85 2.05 2.18 1.94 1.71
0.72 0.60 0.50 0.46 0.40 0.36 0.37 0.43 0.41 0.34 0.28 0.22 0.17 0.14 0.12 0.10 0.09 0.07 0.07 0.08 0.10 0.09 0.11 0.18 0.32 0.51 0.72 0.82 1.05 1.33 1.58 1.66 1.58 1.57 1.61 1.60 1.64 1.70 1.67 1.79 1.99 1.94 1.88 1.89 2.04 2.27 2.51 2.47 2.25
0.67 0.47 0.37 0.38 0.37 0.40 0.31 0.41 0.37 0.34 0.33 0.26 0.22 0.18 0.15 0.15 0.13 0.11 0.11 0.10 0.11 0.13 0.22 0.38 0.62 0.92 1.17 1.32 1.52 1.72 1.83 1.87 1.80 1.81 1.79 1.77 1.70 1.62 1.62 1.73 1.93 2.07 2.14 2.17 2.23 2.22 2.49 2.68 2.53
0.53 0.42 0.36 0.37 0.35 0.32 0.26 0.30 0.29 0.30 0.37 0.34 0.33 0.31 0.29 0.27 0.21 0.21 0.24 0.25 0.30 0.40 0.60 0.89 1.14 1.38 1.53 1.58 1.68 1.88 2.04 2.19 2.20 2.08 1.93 1.82 1.78 1.71 1.62 1.66 1.74 1.78 1.86 1.97 2.10 2.18 2.37 2.48 2.61
0.41 0.43 0.43 0.40 0.39 0.40 0.27 0.24 0.31 0.32 0.35 0.40 0.42 0.37 0.34 0.32 0.31 0.37 0.47 0.59 0.73 0.84 1.02 1.24 1.38 1.52 1.52 1.52 1.58 1.71 1.90 2.06 2.08 2.09 2.05 1.93 1.78 1.68 1.58 1.54 1.64 1.67 1.67 1.78 1.91 2.00 2.21 2.36 2.47
0.39 0.47 0.56 0.55 0.51 0.42 0.26 0.34 0.35 0.29 0.29 0.36 0.39 0.38 0.37 0.36 0.43 0.59 0.74 0.87 0.99 1.10 1.21 1.25 1.24 1.29 1.30 1.32 1.36 1.44 1.50 1.53 1.59 1.70 1.62 1.49 1.36 1.31 1.30 1.24 1.30 1.43 1.48 1.66 1.73 1.67 1.73 1.88 2.08
0.32 0.32 0.45 0.51 0.44 0.39 0.31 0.47 0.44 0.33 0.28 0.28 0.30 0.36 0.46 0.59 0.69 0.79 0.90 0.98 1.02 1.15 1.21 1.17 1.15 1.13 1.06 1.00 1.05 1.07 1.12 1.17 1.20 1.22 1.17 1.09 1.04 1.01 0.97 0.97 0.98 1.04 1.13 1.34 1.55 1.54 1.55 1.61 1.69
0.24 0.23 0.27 0.40 0.37 0.36 0.36 0.50 0.48 0.32 0.26 0.25 0.26 0.34 0.50 0.71 0.95 1.10 1.10 1.00 0.91 0.95 1.03 1.01 0.97 0.93 0.85 0.79 0.82 0.85 0.92 0.95 0.93 0.91 0.86 0.84 0.78 0.78 0.76 0.78 0.86 0.92 0.91 1.02 1.15 1.33 1.41 1.46 1.53
0.20 0.22 0.29 0.43 0.46 0.46 0.43 0.53 0.46 0.34 0.30 0.27 0.32 0.41 0.59 0.81 1.02 1.28 1.40 1.28 1.01 0.81 0.82 0.80 0.77 0.80 0.79 0.75 0.77 0.77 0.70 0.65 0.66 0.69 0.63 0.62 0.67 0.71 0.70 0.67 0.68 0.74 0.77 0.87 0.98 1.03 1.14 1.21 1.37
0.19 0.23 0.30 0.39 0.40 0.52 0.71 0.77 0.61 0.51 0.45 0.44 0.49 0.55 0.62 0.89 1.18 1.32 1.37 1.24 1.06 0.79 0.70 0.69 0.66 0.70 0.77 0.70 0.72 0.71 0.61 0.49 0.47 0.47 0.45 0.45 0.49 0.55 0.56 0.59 0.65 0.65 0.67 0.69 0.70 0.75 0.81 0.88 0.99
0.22 0.27 0.36 0.51 0.54 0.50 0.63 0.71 0.54 0.56 0.62 0.57 0.62 0.71 0.73 0.78 0.83 0.86 0.97 0.98 0.92 0.79 0.71 0.76 0.80 0.79 0.72 0.65 0.62 0.58 0.51 0.44 0.43 0.41 0.38 0.40 0.45 0.47 0.49 0.54 0.58 0.58 0.64 0.66 0.66 0.65 0.68 0.77 0.85

GEFSSGP_prec_meanprecacc_156.txt.gz
Total_Precipitation_Accumulation
2.05 2.20 2.82 3.37 3.45 2.49 1.74 1.35 1.10 0.97 0.80 0.59 0.46 0.43 0.62 1.03 1.37 1.47 1.37 1.24 0.78 0.65 0.64 0.85 1.03 0.99 0.91 0.86 0.84 0.85 0.84 0.82 0.82 0.76 0.64 0.58 0.50 0.44 0.39 0.34 0.32 0.32 0.34 0.38 0.39 0.42 0.38 0.38 0.43
1.83 2.39 3.27 3.72 2.80 1.89 1.61 1.22 1.08 0.85 0.64 0.46 0.38 0.30 0.41 0.39 0.43 0.79 1.52 1.53 0.80 0.61 0.63 0.83 1.12 1.08 1.00 0.95 0.95 0.96 0.88 0.82 0.83 0.77 0.69 0.61 0.56 0.50 0.50 0.48 0.39 0.36 0.38 0.41 0.37 0.36 0.38 0.43 0.49
2.11 2.84 3.68 3.48 2.25 1.68 1.63 1.17 0.89 0.61 0.43 0.41 0.40 0.34 0.42 0.51 0.65 1.07 1.45 1.11 0.75 0.63 0.63 0.91 1.19 1.08 0.99 1.03 1.12 1.10 1.01 0.90 0.83 0.80 0.77 0.70 0.65 0.64 0.68 0.58 0.51 0.49 0.50 0.51 0.51 0.47 0.46 0.54 0.59
2.30 3.19 3.35 2.62 1.96 1.53 1.28 1.06 0.77 0.61 0.40 0.24 0.29 0.40 0.38 0.54 0.73 0.99 0.96 0.69 0.52 0.51 0.53 0.86 1.23 1.10 1.01 1.03 1.16 1.09 1.01 1.00 0.91 0.88 0.86 0.84 0.79 0.79 0.77 0.71 0.69 0.64 0.62 0.61 0.62 0.59 0.58 0.62 0.64
2.44 3.07 2.92 2.52 1.84 1.61 1.17 0.93 0.76 0.69 0.49 0.29 0.24 0.46 0.50 0.74 0.82 0.86 0.80 0.64 0.52 0.52 0.51 0.72 1.09 1.05 0.93 0.95 1.05 1.03 1.02 1.06 0.95 0.89 0.91 0.90 0.89 0.90 0.93 0.89 0.81 0.79 0.76 0.74 0.72 0.67 0.59 0.59 0.64
2.78 2.76 2.73 2.60 2.03 1.77 1.38 1.03 0.72 0.65 0.51 0.38 0.30 0.46 0.63 0.87 0.88 0.88 0.81 0.78 0.71 0.63 0.53 0.58 0.87 0.89 0.86 0.93 0.99 1.01 1.00 0.96 0.85 0.86 0.90 0.92 0.91 0.95 0.99 0.98 0.90 0.87 0.84 0.85 0.84 0.80 0.69 0.64 0.67
2.56 2.46 2.18 1.83 1.91 2.04 1.45 0.90 0.79 0.78 0.70 0.62 0.38 0.53 0.72 0.85 0.75 0.68 0.77 0.93 1.04 0.96 0.79 0.69 0.69 0.70 0.77 0.91 0.96 1.11 1.14 0.97 0.84 0.81 0.81 0.80 0.81 0.84 0.90 0.92 0.87 0.83 0.87 0.86 0.85 0.82 0.77 0.77 0.75
2.16 2.11 1.87 1.76 1.96 2.08 1.26 0.79 0.62 0.60 0.58 0.41 0.33 0.47 0.61 0.67 0.68 0.70 0.79 0.93 0.96 0.94 0.91 0.85 0.85 0.81 0.80 0.83 1.00 1.27 1.38 1.21 0.95 0.84 0.79 0.80 0.74 0.73 0.81 0.78 0.79 0.82 0.90 0.93 0.94 0.90 0.84 0.87 0.88
1.91 2.10 2.04 1.97 1.91 1.66 0.99 0.71 0.51 0.35 0.35 0.32 0.24 0.33 0.43 0.46 0.56 0.70 0.83 0.92 0.90 0.86 0.87 0.84 0.86 0.91 1.02 1.02 1.08 1.33 1.50 1.46 1.10 0.89 0.87 0.78 0.61 0.74 0.78 0.65 0.80 0.88 0.99 1.01 1.04 0.99 0.93 0.98 0.96
1.95 2.02 1.89 1.57 1.37 1.07 0.79 0.64 0.48 0.45 0.44 0.38 0.30 0.34 0.39 0.47 0.52 0.60 0.65 0.67 0.71 0.73 0.73 0.74 0.75 0.75 0.80 0.86 1.18 1.39 1.31 1.39 1.11 1.05 0.97 0.88 0.89 0.92 0.79 0.70 0.83 0.98 1.08 1.06 1.06 1.07 1.02 0.91 0.74
1.66 1.71 1.42 1.24 1.04 0.80 0.68 0.61 0.46 0.50 0.51 0.37 0.30 0.34 0.39 0.44 0.50 0.49 0.49 0.51 0.54 0.57 0.51 0.48 0.52 0.53 0.58 0.68 0.85 1.13 1.39 1.44 1.40 1.34 1.25 1.17 1.06 0.88 0.78 0.76 0.76 0.86 0.95 0.89 0.96 0.96 0.84 0.76 0.70
1.46 1.37 1.19 1.05 0.77 0.78 0.72 0.57 0.48 0.42 0.36 0.28 0.28 0.30 0.34 0.42 0.48 0.48 0.48 0.48 0.51 0.57 0.58 0.48 0.42 0.46 0.46 0.50 0.64 0.88 1.11 1.26 1.28 1.19 1.10 1.27 1.20 0.96 0.86 0.93 0.93 0.90 0.94 1.04 1.06 0.99 0.91 0.83 0.76
1.34 1.39 1.09 0.86 0.76 0.78 0.68 0.56 0.46 0.39 0.30 0.24 0.26 0.34 0.44 0.50 0.53 0.51 0.49 0.50 0.53 0.57 0.62 0.56 0.43 0.37 0.42 0.45 0.51 0.60 0.84 1.00 1.00 1.13 1.09 1.13 1.11 0.97 0.88 0.88 1.02 0.98 0.98 1.08 1.16 1.03 0.95 0.96 0.94
1.17 1.14 1.04 0.83 0.78 0.78 0.76 0.55 0.42 0.45 0.36 0.32 0.35 0.42 0.49 0.55 0.55 0.54 0.51 0.50 0.50 0.51 0.53 0.54 0.49 0.47 0.46 0.44 0.44 0.49 0.54 0.71 0.74 0.75 0.74 0.94 1.04 1.02 1.03 0.92 1.00 1.14 1.15 1.12 1.11 1.09 0.99 0.95 0.97
0.97 1.00 1.06 0.93 0.88 0.83 0.74 0.70 0.49 0.44 0.38 0.34 0.37 0.41 0.46 0.53 0.53 0.53 0.48 0.43 0.43 0.44 0.44 0.48 0.54 0.59 0.57 0.57 0.57 0.54 0.55 0.58 0.65 0.72 0.73 0.86 0.96 1.03 1.04 0.92 0.95 1.09 1.26 1.22 1.14 1.07 1.04 0.90 0.86
1.07 1.26 1.42 1.12 0.95 0.90 0.82 0.78 0.54 0.50 0.42 0.36 0.34 0.34 0.32 0.33 0.38 0.44 0.42 0.37 0.36 0.34 0.33 0.39 0.45 0.52 0.58 0.62 0.66 0.62 0.66 0.67 0.65 0.70 0.68 0.73 0.88 1.04 1.12 1.03 0.98 1.13 1.31 1.45 1.46 1.28 1.18 1.06 0.98
1.30 1.34 1.24 1.16 0.90 0.84 0.76 0.68 0.59 0.46 0.38 0.33 0.30 0.31 0.28 0.24 0.26 0.30 0.31 0.29 0.28 0.28 0.26 0.29 0.34 0.41 0.48 0.57 0.65 0.67 0.69 0.83 0.91 0.79 0.65 0.72 0.85 0.96 1.17 1.24 1.19 1.22 1.37 1.42 1.43 1.41 1.25 1.22 1.18
1.01 1.01 0.97 1.02 0.83 0.67 0.57 0.51 0.51 0.41 0.28 0.26 0.24 0.23 0.23 0.20 0.19 0.22 0.22 0.23 0.24 0.24 0.23 0.25 0.31 0.33 0.36 0.47 0.64 0.73 0.70 0.80 1.01 1.05 1.01 1.05 1.12 1.18 1.34 1.42 1.40 1.40 1.46 1.42 1.53 1.68 1.46 1.29 1.31
0.82 0.79 0.76 0.66 0.57 0.54 0.47 0.41 0.41 0.38 0.31 0.25 0.21 0.19 0.19 0.17 0.16 0.15 0.15 0.17 0.18 0.18 0.19 0.24 0.29 0.32 0.34 0.42 0.53 0.62 0.72 0.90 1.11 1.17 1.22 1.36 1.38 1.40 1.54 1.64 1.65 1.58 1.49 1.53 1.69 2.02 1.91 1.55 1.38
0.76 0.68 0.68 0.58 0.48 0.45 0.45 0.43 0.40 0.33 0.30 0.22 0.19 0.16 0.14 0.16 0.14 0.10 0.10 0.12 0.12 0.10 0.12 0.18 0.27 0.36 0.42 0.48 0.62 0.77 1.00 1.11 1.25 1.40 1.39 1.42 1.47 1.50 1.58 1.78 1.89 1.82 1.78 1.86 1.87 2.06 2.19 1.95 1.72
0.73 0.63 0.54 0.51 0.48 0.45 0.42 0.48 0.44 0.37 0.30 0.23 0.20 0.16 0.15 0.15 0.13 0.09 0.08 0.08 0.10 0.09 0.11 0.18 0.32 0.51 0.72 0.82 1.05 1.33 1.58 1.66 1.58 1.57 1.61 1.60 1.64 1.70 1.67 1.79 1.99 1.94 1.88 1.89 2.06 2.29 2.53 2.48 2.25
0.70 0.49 0.41 0.43 0.44 0.49 0.36 0.46 0.41 0.36 0.35 0.28 0.24 0.20 0.17 0.19 0.17 0.12 0.11 0.10 0.11 0.13 0.22 0.38 0.62 0.92 1.17 1.32 1.52 1.72 1.83 1.87 1.80 1.81 1.80 1.78 1.70 1.62 1.62 1.74 1.94 2.07 2.14 2.17 2.24 2.23 2.50 2.69 2.54
0.55 0.45 0.40 0.42 0.42 0.39 0.30 0.32 0.31 0.32 0.38 0.36 0.35 0.32 0.30 0.29 0.22 0.22 0.24 0.25 0.31 0.40 0.60 0.89 1.15 1.39 1.53 1.58 1.68 1.88 2.04 2.19 2.20 2.08 1.93 1.82 1.78 1.71 1.62 1.66 1.75 1.79 1.86 1.97 2.10 2.18 2.37 2.48 2.61
0.44 0.47 0.48 0.45 0.45 0.46 0.31 0.26 0.32 0.32 0.36 0.40 0.43 0.38 0.36 0.33 0.32 0.38 0.48 0.59 0.73 0.84 1.02 1.24 1.38 1.53 1.52 1.52 1.58 1.71 1.90 2.06 2.08 2.09 2.06 1.93 1.78 1.68 1.59 1.54 1.64 1.67 1.67 1.79 1.91 2.00 2.21 2.36 2.47
0.44 0.52 0.62 0.61 0.56 0.48 0.28 0.35 0.36 0.29 0.30 0.37 0.40 0.39 0.38 0.36 0.44 0.59 0.74 0.88 1.00 1.10 1.21 1.25 1.24 1.29 1.30 1.32 1.36 1.44 1.50 1.53 1.59 1.70 1.62 1.49 1.36 1.31 1.31 1.24 1.30 1.43 1.48 1.66 1.73 1.67 1.73 1.88 2.08
0.38 0.37 0.50 0.56 0.49 0.41 0.33 0.48 0.45 0.33 0.29 0.28 0.31 0.37 0.47 0.60 0.70 0.80 0.90 0.99 1.02 1.15 1.21 1.17 1.15 1.13 1.06 1.00 1.05 1.07 1.12 1.17 1.20 1.22 1.17 1.09 1.04 1.01 0.97 0.97 0.98 1.04 1.13 1.34 1.55 1.54 1.55 1.61 1.69
0.30 0.28 0.31 0.43 0.40 0.39 0.37 0.51 0.48 0.32 0.27 0.26 0.27 0.35 0.50 0.72 0.96 1.11 1.10 1.01 0.91 0.95 1.03 1.01 0.97 0.93 0.85 0.79 0.82 0.85 0.92 0.95 0.93 0.91 0.86 0.84 0.78 0.78 0.76 0.78 0.86 0.92 0.91 1.02 1.15 1.33 1.41 1.46 1.53
0.23 0.25 0.31 0.46 0.50 0.49 0.45 0.53 0.46 0.34 0.31 0.28 0.33 0.42 0.60 0.82 1.02 1.29 1.41 1.29 1.01 0.81 0.83 0.80 0.77 0.80 0.80 0.75 0.77 0.77 0.70 0.65 0.66 0.69 0.63 0.62 0.67 0.71 0.70 0.67 0.68 0.74 0.77 0.87 0.98 1.03 1.14 1.21 1.37
0.22 0.26 0.32 0.42 0.43 0.54 0.73 0.77 0.62 0.51 0.46 0.44 0.49 0.55 0.62 0.89 1.18 1.32 1.38 1.24 1.06 0.79 0.70 0.69 0.66 0.70 0.77 0.70 0.72 0.71 0.61 0.49 0.47 0.47 0.45 0.45 0.49 0.55 0.56 0.59 0.65 0.65 0.67 0.69 0.70 0.75 0.81 0.88 0.99
0.24 0.29 0.38 0.55 0.56 0.52 0.64 0.71 0.54 0.57 0.63 0.57 0.62 0.71 0.73 0.79 0.83 0.86 0.98 0.99 0.92 0.79 0.72 0.77 0.80 0.80 0.72 0.65 0.62 0.58 0.51 0.44 0.43 0.41 0.38 0.40 0.45 0.47 0.49 0.54 0.58 0.58 0.64 0.66 0.66 0.65 0.68 0.77 0.85